Flag for U.S.A. Weather past 2 weeks in Greensboro, North Carolina, U.S.A.

Now
92 °F

Partly sunny.


Feels Like: 97 °F
Forecast: 73 / 90 °F
Wind: 3 mph from North

Location: Piedmont Triad International Airport

Current Time: Jul 30, 2015 at 5:17:31 PM

Latest Report: Jul 30, 2015 at 4:54 PM


Visibility: 10 mi

Pressure: 29.86 "Hg

Humidity: 47%

Dew point: 69 °F

Location of GreensboroLocation

Historic Weather in Greensboro — Graph

°F

Greensboro temperature yesterday

Maximum temperature yesterday: 87 °F (at 4:54 PM)
Minimum temperature yesterday: 73 °F (at 2:54 AM)
Average temperature yesterday: 79 °F

Past Weeks' High & Low Weather Summary

 TemperatureHumidityPressure
High94 °F (Jul 18, 3:54 PM)100% (Jul 24, 6:03 AM)30.09 "Hg (Jul 24, 6:03 AM)
Low68 °F (Jul 25, 6:54 AM)40% (Jul 18, 2:54 PM)29.70 "Hg (Jul 21, 4:54 PM)
Average79 °F71%29.93 "Hg
* Reported Jul 15 3:54 PM — Jul 30 3:54 PM, Greensboro, Weather by CustomWeather, © 2015

Note: Actual official high and low records may vary slightly from our data, if they occured in-between our weather recording intervals... More about our weather records

Advertising

Greensboro weather history for previous 24 hours

 ConditionsComfort  
Time TempWeatherWind HumidityBarometerVisibility
3:54 PM
Thu, Jul 30
88 °FBroken clouds.5 mph55%29.88 "Hg10 mi
2:54 PM84 °FLight rain. Broken clouds.13 mph70%29.91 "Hg9 mi
1:54 PM90 °FBroken clouds.9 mph52%29.92 "Hg10 mi
12:54 PM91 °FBroken clouds.5 mph50%29.94 "Hg10 mi
11:54 AM88 °FBroken clouds.No wind59%29.95 "Hg10 mi
10:54 AM86 °FBroken clouds.7 mph63%29.95 "Hg10 mi
9:54 AM84 °FPartly sunny.5 mph72%29.95 "Hg10 mi
8:54 AM80 °FPartly sunny.6 mph81%29.95 "Hg8 mi
7:54 AM77 °FPartly sunny.6 mph90%29.94 "Hg8 mi
6:54 AM74 °FFog.3 mph97%29.94 "Hg6 mi
5:54 AM74 °FPassing clouds.6 mph97%29.92 "Hg8 mi
4:54 AM75 °FPassing clouds.3 mph94%29.93 "Hg9 mi
3:54 AM77 °FPassing clouds.No wind90%29.93 "Hg10 mi
2:54 AM77 °FPartly cloudy.No wind90%29.94 "Hg9 mi
1:54 AM78 °FMostly cloudy.No wind90%29.96 "Hg9 mi
12:54 AM78 °FMostly cloudy.No wind87%29.97 "Hg10 mi
11:54 PM
Wed, Jul 29
79 °FMostly cloudy.No wind82%29.97 "Hg10 mi
10:54 PM79 °FMostly cloudy.No wind82%29.97 "Hg10 mi
9:54 PM79 °FPartly cloudy.No wind79%29.97 "Hg10 mi
8:54 PM79 °FMostly cloudy.No wind79%29.95 "Hg10 mi
7:54 PM79 °FMostly cloudy.10 mph77%29.95 "Hg10 mi
6:54 PM79 °FMostly cloudy.5 mph84%29.93 "Hg10 mi
5:54 PM83 °FPartly sunny.8 mph72%29.94 "Hg10 mi
Weather by CustomWeather, © 2015

See weather overviewHow to use our weather pages